Location: Dodgeville, WI 53533, USA
(43.0344°N, 90.0900°W)
Time: 21:36:02
(UTC-06:00)

ISS - Visible Passes

Search period start: 30 November 2023 00:00
Search period end: 10 December 2023 00:00
Orbit: 416 x 417 km, 51.6° (Epoch: 30 November)

Date Brightness Start Highest point End Pass type
(mag) Time Alt. Az. Time Alt. Az. Time Alt. Az.
30 Nov -2.8 18:16:50 10° NW 18:19:22 37° N 18:19:22 37° N visible
01 Dec -2.8 17:28:30 10° NW 17:31:33 31° NNE 17:33:13 20° ENE visible
01 Dec -0.9 19:05:10 10° WNW 19:06:08 17° WNW 19:06:08 17° WNW visible
02 Dec -3.8 18:16:38 10° WNW 18:20:00 81° SW 18:20:07 79° S visible
03 Dec -3.8 17:28:09 10° NW 17:31:30 62° NNE 17:34:16 14° ESE visible
03 Dec -0.9 19:05:36 10° W 19:07:14 17° WSW 19:07:14 17° WSW visible
04 Dec -1.9 18:16:34 10° WNW 18:19:32 29° SW 18:21:40 15° SSE visible
05 Dec -2.9 17:27:48 10° WNW 17:31:03 51° SW 17:34:18 10° SE visible
06 Dec -0.4 18:17:35 10° WSW 18:18:41 11° SW 18:19:48 10° SSW visible
07 Dec -0.8 17:27:44 10° W 17:30:13 19° SW 17:32:41 10° S visible
